Location: Three Guys Observatory
(38.6418°N, 87.1521°W)
Time: 06:36:25
(UTC-04:00)

ISS - Visible Passes

Search period start: 29 March 2015 00:00
Search period end: 08 April 2015 00:00
Orbit: 396 x 406 km, 51.6° (Epoch: 28 March)

Date Brightness Start Highest point End Pass type
(mag) Time Alt. Az. Time Alt. Az. Time Alt. Az.
29 Mar 0.2 04:53:33 10° NE 04:53:33 10° NE 04:53:40 10° NE visible
29 Mar -2.4 06:26:12 10° NW 06:29:21 47° NE 06:32:29 10° ESE visible
30 Mar -1.4 05:35:23 26° NNE 05:35:50 27° NNE 05:38:39 10° E visible
30 Mar -2.5 07:09:20 10° WNW 07:12:15 31° SW 07:15:09 10° SSE visible
31 Mar -3.5 06:17:26 29° WNW 06:18:55 70° SW 06:22:07 10° SE visible
01 Apr -1.3 05:27:09 24° ESE 05:27:09 24° ESE 05:28:38 10° ESE visible
01 Apr -1.4 06:59:53 10° W 07:01:33 13° SW 07:03:08 10° SSW visible
02 Apr -1.5 06:09:49 18° S 06:09:49 18° S 06:10:59 10° SSE visible
02 Apr -1.7 21:07:46 10° S 21:09:51 17° SE 21:09:51 17° SE visible
03 Apr -3.5 21:49:17 10° SW 21:52:32 89° SE 21:52:41 81° ENE visible
04 Apr -2.9 20:55:57 10° SSW 20:59:02 40° SE 21:02:08 10° ENE visible
04 Apr -0.9 22:32:49 10° W 22:35:08 23° NW 22:35:08 23° NW visible
05 Apr -2.0 21:38:42 10° WSW 21:41:48 39° NNW 21:44:35 12° NE visible
06 Apr -3.2 20:44:52 10° SW 20:48:08 79° NW 20:51:24 10° NE visible
06 Apr -0.5 22:22:59 10° WNW 22:24:58 15° NNW 22:26:21 12° N visible
07 Apr -0.9 21:28:28 10° W 21:31:05 22° NNW 21:33:40 10° NNE visible
